Weather reports worldwide

Advertisment
Marham, United Kingdom (3482): temperature & dewpoint: 18.06.2018 10:00:00 - 24.06.2018 10:00:00 (BST)Marham, United Kingdom (3482): temperature -20cm & temperature -100cm: 18.06.2018 10:00:00 - 24.06.2018 10:00:00 (BST)Marham, United Kingdom (3482): wind speed & gusts: 18.06.2018 10:00:00 - 24.06.2018 10:00:00 (BST)Marham, United Kingdom (3482): wind direction: 18.06.2018 10:00:00 - 24.06.2018 10:00:00 (BST)Marham, United Kingdom (3482): reduced air pressure: 18.06.2018 10:00:00 - 24.06.2018 10:00:00 (BST)Marham, United Kingdom (3482): visibility: 18.06.2018 10:00:00 - 24.06.2018 10:00:00 (BST)Marham, United Kingdom (3482): precipitation: 18.06.2018 10:00:00 - 24.06.2018 10:00:00 (BST)
Date & Time tt [°C] td [°C] tt -20cm [°C] tt -100cm [°C] ff [km/h] ff [kn] fx [km/h] fx [kn] dd ppp [hPa] vv [km] rr [mm]
24.06.2018 10:00:00 - - - - - - - - - - - -
24.06.2018 09:00:00 16,0 9,0 - - 5 3 - - NNE 1026,2 26 0,0
24.06.2018 08:00:00 13,6 10,4 - - 5 3 - - N 1026,3 24 0,0
24.06.2018 07:00:00 10,8 9,4 - - 2 1 - - NE 1026,0 10 0,0
24.06.2018 06:00:00 7,0 5,6 - - 5 3 - - NE 1025,8 25 0,0
24.06.2018 05:00:00 7,6 6,2 - - 2 1 - - S 1025,4 25 0,0
24.06.2018 04:00:00 8,3 6,7 - - 0 0 - - N 1025,5 27 0,0
24.06.2018 03:00:00 8,1 6,5 - - 4 2 - - NE 1025,7 25 0,0
24.06.2018 02:00:00 9,8 6,4 - - 5 3 - - SSE 1025,8 29 0,0
24.06.2018 01:00:00 10,2 7,3 - - 5 3 - - E 1026,0 25 0,0
24.06.2018 00:00:00 10,9 8,1 - - 8 4 - - ENE 1026,4 26 0,0
23.06.2018 23:00:00 12,3 8,1 - - 2 1 - - ENE 1026,3 10 0,0
23.06.2018 22:00:00 14,1 8,7 - - 8 4 - - E 1026,3 10 0,0
23.06.2018 21:00:00 15,8 10,8 - - 4 2 - - NE 1025,8 10 0,0
23.06.2018 20:00:00 18,6 9,6 - - 9 5 - - NW 1025,6 30 0,0
23.06.2018 19:00:00 19,3 7,7 - - 11 6 - - NW 1025,7 10 0,0
23.06.2018 18:00:00 19,9 7,4 - - 15 8 - - NW 1025,9 10 0,0
23.06.2018 17:00:00 20,9 7,6 - - 15 8 - - NW 1026,2 10 0,0
23.06.2018 16:00:00 20,7 6,8 - - 13 7 - - NNW 1026,5 10 0,0
23.06.2018 15:00:00 21,0 7,9 - - 15 8 - - WNW 1026,8 10 0,0
23.06.2018 14:00:00 21,1 7,3 - - 21 11 - - WNW 1027,0 10 0,0
23.06.2018 13:00:00 20,5 10,2 - - 18 10 - - WNW 1027,5 10 0,0
23.06.2018 12:00:00 18,7 10,1 - - 16 9 - - WNW 1027,8 10 0,0
23.06.2018 11:00:00 17,7 10,1 - - 13 7 - - WNW 1028,2 10 0,0
23.06.2018 10:00:00 16,2 9,4 16,7 14,9 13 7 - - NW 1028,2 10 0,0
23.06.2018 09:00:00 14,9 8,8 - - 13 7 - - NW 1028,4 27 0,0
23.06.2018 08:00:00 13,6 7,9 - - 13 7 - - WNW 1028,5 10 0,0
23.06.2018 07:00:00 11,3 7,3 - - 9 5 - - W 1028,5 10 0,0
23.06.2018 06:00:00 8,4 7,2 - - 5 3 - - S 1028,3 10 0,0
23.06.2018 05:00:00 7,6 6,8 - - 4 2 - - S 1028,6 19 0,0
23.06.2018 04:00:00 9,6 7,8 - - 9 5 - - SSE 1028,6 10 0,0
23.06.2018 03:00:00 9,9 7,3 - - 9 5 - - SE 1029,1 10 0,0
23.06.2018 02:00:00 9,1 5,5 - - 8 4 - - ESE 1029,4 10 0,0
23.06.2018 01:00:00 11,0 5,1 - - 9 5 - - SE 1029,7 10 0,0
23.06.2018 00:00:00 11,8 3,7 - - 5 3 - - SE 1029,8 10 0,0
22.06.2018 23:00:00 11,6 4,4 - - 8 4 - - ESE 1029,9 10 0,0
22.06.2018 22:00:00 12,3 5,3 - - 5 3 - - E 1030,0 10 0,0
22.06.2018 21:00:00 15,0 4,5 - - 9 5 - - ESE 1029,6 10 0,0
22.06.2018 20:00:00 16,2 4,5 - - 8 4 - - E 1030,2 30 0,0
22.06.2018 19:00:00 16,9 3,3 - - 9 5 - - E 1030,2 30 0,0
22.06.2018 18:00:00 17,3 4,2 - - 13 7 - - NE 1030,5 30 0,0
22.06.2018 17:00:00 17,9 3,7 - - 15 8 - - NE 1030,5 35 0,0
22.06.2018 16:00:00 18,2 3,1 - - 15 8 - - N 1030,6 10 0,0
22.06.2018 15:00:00 18,3 2,8 - - 18 10 - - N 1030,6 10 0,0
22.06.2018 14:00:00 17,8 3,2 - - 18 10 - - N 1030,8 10 0,0
22.06.2018 13:00:00 17,2 5,4 - - 22 12 - - N 1030,9 10 0,0
22.06.2018 12:00:00 17,2 4,7 - - 22 12 - - N 1031,0 10 0,0
22.06.2018 11:00:00 16,0 5,5 - - 26 14 - - N 1030,8 10 0,0
22.06.2018 10:00:00 15,8 7,4 16,5 14,9 18 10 - - N 1030,6 10 0,0
22.06.2018 09:00:00 14,8 7,2 - - 21 11 - - NNW 1030,4 10 0,0
22.06.2018 08:00:00 13,8 8,0 - - 18 10 - - NNW 1030,0 10 0,0
22.06.2018 07:00:00 12,4 8,3 - - 13 7 - - NW 1029,5 10 0,0
22.06.2018 06:00:00 9,7 7,7 - - 13 7 - - WNW 1029,1 10 0,0
22.06.2018 05:00:00 8,2 6,5 - - 11 6 - - WNW 1028,9 10 0,0
22.06.2018 04:00:00 8,9 6,3 - - 13 7 - - NW 1028,8 10 0,0
22.06.2018 03:00:00 8,6 6,0 - - 11 6 - - WNW 1028,6 10 0,0
22.06.2018 02:00:00 9,2 6,1 - - 13 7 - - WNW 1028,5 10 0,0
22.06.2018 01:00:00 7,8 5,4 - - 4 2 - - SSW 1028,5 10 0,0
22.06.2018 00:00:00 9,0 5,9 - - 2 1 - - W 1028,8 10 0,0
21.06.2018 23:00:00 9,5 5,8 - - 5 3 - - NE 1028,9 10 0,0
21.06.2018 22:00:00 12,0 6,0 - - 5 3 - - ENE 1028,5 10 0,0
21.06.2018 21:00:00 13,8 5,4 - - 5 3 - - ENE 1027,9 10 0,0
21.06.2018 20:00:00 15,8 5,6 - - 4 2 - - NE 1027,8 10 0,0
21.06.2018 19:00:00 15,9 5,3 - - 8 4 - - NNE 1027,6 10 0,0
21.06.2018 18:00:00 16,3 5,8 - - 9 5 - - N 1027,4 10 0,0
21.06.2018 17:00:00 16,8 6,7 - - 13 7 - - N 1027,1 10 0,0
21.06.2018 16:00:00 16,1 6,3 - - 16 9 - - NNE 1026,9 10 0,0
21.06.2018 15:00:00 15,8 6,3 - - 18 10 - - N 1026,5 10 0,0
21.06.2018 14:00:00 15,0 4,9 - - 18 10 - - N 1026,2 10 0,0
21.06.2018 13:00:00 14,6 4,9 - - 21 11 - - N 1025,6 10 0,0
21.06.2018 12:00:00 14,5 4,6 - - 24 13 - - N 1025,2 10 0,0
21.06.2018 11:00:00 14,6 5,3 - - 24 13 - - NNW 1024,5 10 0,0
21.06.2018 10:00:00 13,4 4,5 16,9 14,7 29 16 46 25 NNW 1023,5 10 0,0
21.06.2018 09:00:00 13,3 5,0 - - 37 20 55 30 NW 1022,8 10 0,0
21.06.2018 08:00:00 12,5 5,0 - - 31 17 50 27 NW 1022,3 10 0,0
21.06.2018 07:00:00 11,0 6,1 - - 21 11 - - WNW 1021,6 10 0,0
21.06.2018 06:00:00 10,0 6,2 - - 21 11 - - W 1021,2 10 0,0
21.06.2018 05:00:00 9,6 5,8 - - 15 8 - - W 1020,9 10 0,0
21.06.2018 04:00:00 10,4 5,3 - - 16 9 - - NW 1020,7 10 0,0
21.06.2018 03:00:00 11,4 4,5 - - 21 11 - - WNW 1020,4 10 0,0
21.06.2018 02:00:00 12,2 5,3 - - 21 11 - - WNW 1019,9 10 0,0
21.06.2018 01:00:00 12,8 6,6 - - 22 12 - - WNW 1019,5 10 0,0
21.06.2018 00:00:00 13,9 8,1 - - 22 12 - - WNW 1019,4 29 0,0
20.06.2018 23:00:00 13,9 10,7 - - 8 4 - - WNW 1019,2 10 0,0
20.06.2018 22:00:00 14,9 11,4 - - 11 6 - - N 1018,9 30 0,0
20.06.2018 21:00:00 18,4 12,1 - - 22 12 - - NW 1017,9 10 0,0
20.06.2018 20:00:00 19,5 13,6 - - 24 13 - - NW 1017,5 10 0,0
20.06.2018 19:00:00 21,0 14,5 - - 21 11 - - NW 1017,0 30 0,0
20.06.2018 18:00:00 22,8 14,2 - - 24 13 - - WSW 1016,7 10 0,0
20.06.2018 17:00:00 23,1 14,8 - - 22 12 - - WSW 1016,7 10 0,0
20.06.2018 16:00:00 23,0 15,1 - - 31 17 50 27 WSW 1017,1 10 0,0
20.06.2018 15:00:00 22,8 15,6 - - 34 18 50 27 WSW 1017,1 10 0,0
20.06.2018 14:00:00 23,0 15,9 - - 29 16 - - SW 1017,2 10 0,0
20.06.2018 13:00:00 23,6 15,9 - - 29 16 - - SW 1017,5 10 0,0
20.06.2018 12:00:00 23,1 15,8 - - 31 17 46 25 SW 1017,9 29 0,0
20.06.2018 11:00:00 20,7 15,2 - - 29 16 - - SW 1018,3 27 0,0
20.06.2018 10:00:00 20,6 15,7 17,0 14,7 29 16 - - SW 1018,4 10 0,0
20.06.2018 09:00:00 18,9 15,5 - - 29 16 - - SSW 1018,7 10 0,0
20.06.2018 08:00:00 18,1 15,2 - - 26 14 - - SW 1019,0 10 0,0
20.06.2018 07:00:00 16,5 15,2 - - 18 10 - - SW 1019,2 10 0,0
20.06.2018 06:00:00 15,2 14,4 - - 13 7 - - SSW 1019,3 10 0,0
20.06.2018 05:00:00 15,0 14,2 - - 11 6 - - SSW 1019,5 10 0,0
20.06.2018 04:00:00 15,4 14,3 - - 15 8 - - SW 1019,6 10 0,0
20.06.2018 03:00:00 15,0 14,1 - - 15 8 - - SSW 1019,8 20 0,0
20.06.2018 02:00:00 15,4 14,1 - - 11 6 - - SSW 1020,1 25 0,0
20.06.2018 01:00:00 16,3 14,6 - - 11 6 - - S 1020,6 10 0,0
20.06.2018 00:00:00 17,1 14,8 - - 9 5 - - SSW 1020,6 10 0,0
19.06.2018 23:00:00 18,4 15,2 - - 13 7 - - SSW 1020,7 10 0,0
19.06.2018 22:00:00 19,5 15,6 - - 15 8 - - SW 1020,9 25 0,0
19.06.2018 21:00:00 21,3 15,6 - - 18 10 - - WSW 1020,3 10 0,0
19.06.2018 20:00:00 22,4 15,7 - - 18 10 - - WSW 1020,4 25 0,0
19.06.2018 19:00:00 22,6 15,7 - - 24 13 - - WSW 1020,4 10 0,0
19.06.2018 18:00:00 23,7 15,7 - - 26 14 - - WSW 1020,3 10 0,0
19.06.2018 17:00:00 24,3 15,5 - - 26 14 - - SW 1020,5 25 0,0
19.06.2018 16:00:00 23,1 15,1 - - 15 8 - - SW 1021,0 10 0,0
19.06.2018 15:00:00 22,8 14,9 - - 22 12 - - SSW 1021,4 10 0,0
19.06.2018 14:00:00 21,7 14,9 - - 15 8 - - SW 1021,8 10 0,0
19.06.2018 13:00:00 20,6 14,7 - - 15 8 - - SW 1022,2 10 0,0
19.06.2018 12:00:00 20,2 14,9 - - 13 7 - - SW 1022,4 10 0,0
19.06.2018 11:00:00 18,0 14,8 - - 5 3 - - NW 1022,6 10 0,0
19.06.2018 10:00:00 17,5 14,4 16,7 14,7 5 3 - - NW 1022,5 10 0,0
19.06.2018 09:00:00 16,4 13,5 - - 15 8 - - NNW 1022,5 8 0,0
19.06.2018 08:00:00 17,9 14,5 - - 18 10 - - W 1021,7 15 0,0
19.06.2018 07:00:00 17,3 14,3 - - 18 10 - - WSW 1021,2 20 0,0
19.06.2018 06:00:00 17,1 14,2 - - 18 10 - - WSW 1020,5 10 0,0
19.06.2018 05:00:00 17,0 14,3 - - 15 8 - - WSW 1020,1 10 0,0
19.06.2018 04:00:00 17,4 14,3 - - 21 11 - - WSW 1019,5 20 0,0
19.06.2018 03:00:00 17,5 14,6 - - 22 12 - - WSW 1019,1 20 0,0
19.06.2018 02:00:00 17,2 14,6 - - 22 12 - - SW 1018,6 20 0,0
19.06.2018 01:00:00 17,3 14,7 - - 24 13 - - WSW 1018,1 20 0,0
19.06.2018 00:00:00 18,5 14,7 - - 26 14 - - WSW 1018,1 10 0,0
18.06.2018 23:00:00 19,4 14,7 - - 26 14 - - SW 1018,0 10 0,0
18.06.2018 22:00:00 19,7 14,6 - - 26 14 - - SW 1017,9 10 0,0
18.06.2018 21:00:00 20,2 14,1 - - 28 15 - - SW 1017,3 25 0,0
18.06.2018 20:00:00 21,2 13,4 - - 21 11 46 25 WSW 1017,0 10 0,0
18.06.2018 19:00:00 22,3 12,6 - - 29 16 - - WSW 1016,8 10 0,0
18.06.2018 18:00:00 23,4 12,4 - - 29 16 46 25 WSW 1016,3 10 0,0
18.06.2018 17:00:00 23,9 11,4 - - 31 17 - - WSW 1016,3 10 0,0
18.06.2018 16:00:00 23,5 10,5 - - 29 16 - - W 1016,5 10 0,0
18.06.2018 15:00:00 23,7 13,4 - - 29 16 46 25 W 1016,7 25 0,0
18.06.2018 14:00:00 23,5 13,9 - - 28 15 46 25 WSW 1016,6 10 0,0
18.06.2018 13:00:00 21,6 13,0 - - 29 16 - - WSW 1017,0 10 0,0
18.06.2018 12:00:00 20,5 13,0 - - 26 14 - - WSW 1016,9 10 0,0
18.06.2018 11:00:00 21,1 13,8 - - 29 16 - - W 1017,0 10 0,0
18.06.2018 10:00:00 18,5 12,9 16,2 14,7 24 13 - - WSW 1016,9 20 0,0

tt = temperature
td = dewpoint
tt -20cm = temperature -20cm
tt -100cm = temperature -100cm
ff = wind speed
fx = gusts
dd = wind direction
ppp = reduced air pressure
vv = visibility
rr = precipitation

Next stations